Location: Nitra
(0.0000°N, 18.0833°E)
Time: 15:55:22
(UTC+02:00)

ARIANE 5 DEB (SYLDA) - Pass Details

Date: 31 March 2023
Orbit: 830 x 35917 km, 2.4° (Epoch: 03 June)

Event Time Altitude Azimuth Distance (km) Brightness Sun altitude
Rises 02:09:59 0° 272° (W) 11,074 8.2 -70.1°
Reaches altitude 10° 02:15:54 10° 271° (W) 11,620 8.2 -68.7°
Enters shadow 02:26:29 24° 271° (W) 13,011 8.3 -66.1°
Exits shadow 03:39:34 53° 269° (W) 24,330 9.4 -48.0°
Maximum altitude 12:10:49 89° 178° (S) 2,468 7.4 78.9°
Drops below altitude 10° 12:18:07 10° 88° (E) 3,221 6.0 80.6°
Sets 12:19:46 0° 88° (E) 3,853 6.2 81.0°
